Torna al catalogo

SL-8 DEB

AttivoLEO
NORAD 21163·DEBRIS·🇷🇺 Russia

Lanciato Feb 12, 1991 da Plesetsk Cosmodrome

Loading…

Prossimi Passaggi (prossime 24 ore)

TLE

AggiornatoSource: Space-Track

Epoca: Sep 14, 2026, 14:44 UTC

1 21163U 91009AA  26257.61456319  .00000028  00000-0  35558-3 0  9998
2 21163  73.9458  10.9983 0138336 259.1229 113.3999 12.30978378595827

Traccia SL-8 DEB in tempo reale con AllMySat

Download on the App Store